LFTHLFMP

Guest
Details From LFTH - Le Palyvestre Navy
To LFMP - Rivesaltes
Flight Number -
Tags Generated
Created
Modified
Stats Distance 146 nm / 270 km
Max Altitude 0 ft / 0 m
Waypoints 2
Social Downloads 2
Likes 0
Share VATSIM

Download

Looking for another format? Having issues loading an existing format? Contact us
Advertisement - Login to hide

Notes

Generated

Route

LFTH LFMP

ID Type Via Altitude Latitude Longitude Leg Dist Tot Dist Heading (true) Name
O LFTH APT - 0 ft / 0 m 43.10192˚ 6.13980˚ - 0 nm - -
O LFMP APT - 0 ft / 0 m 42.73990˚ 2.86519˚ 145 nm 145 nm 263° / 260° Rivesaltes

Altitude Profile

Advertisement - Login to hide

LFTH

Details ICAO LFTH (TLN)
Name Le Palyvestre Navy
Region France
Timezone Europe/Paris (UTC+2.0)
Stats Elevation 6 ft / 2 m (AMSL)
Location 43.098120° 6.149761°
Runways 2
Magnetic Variation 1.821° E

METAR

LFTH 221200Z AUTO 20003KT 170V230 9999 -RA BKN032/// BKN042/// OVC082/// ///CB 18/16 Q1014 TEMPO SHRA BECMG BKN014 BKN040TCU BKN075

Decode

TAF

TAF LFTH 220800Z 2209/2309 35005KT 9999 BKN014 BKN040TCU BKN075 TEMPO 2209/2218 6000 SHRA FEW010 BECMG 2218/2220 SCT050 BKN130 BECMG 2221/2223 CAVOK PROB30 TEMPO 2303/2309 SCT010

Decode

Departure Runways

ID Width Length Bearing (true) Bearing (mag) Surface Threshold Offset Overrun Length
05 148 ft / 45 m 6,956 ft / 2,120 m 51.12° 49.30° Concrete 722 ft / 220 m 361 ft / 110 m
14 164 ft / 50 m 6,302 ft / 1,921 m 135.18° 133.36° Concrete 951 ft / 290 m 0 ft / 0 m
23 148 ft / 45 m 6,956 ft / 2,120 m 231.13° 229.31° Concrete 0 ft / 0 m 141 ft / 43 m
32 164 ft / 50 m 6,302 ft / 1,921 m 315.20° 313.38° Concrete 295 ft / 90 m 443 ft / 135 m

LFMP

Details ICAO LFMP (PGF)
Name Rivesaltes
Region France
Timezone Europe/Paris (UTC+2.0)
Stats Elevation 143 ft / 44 m (AMSL)
Location 42.740488° 2.870594°
Runways 2
Magnetic Variation 1.041° E

METAR

LFMP 221200Z AUTO 13008KT 9999 FEW041 BKN056 BKN068 23/15 Q1013

Decode

TAF

Not found

Destination Runways

ID Width Length Bearing (true) Bearing (mag) Surface Threshold Offset Overrun Length
13 66 ft / 20 m 4,231 ft / 1,290 m 127.54° 126.50° Asphalt 492 ft / 150 m 0 ft / 0 m
15 148 ft / 45 m 8,189 ft / 2,496 m 148.38° 147.34° Asphalt 0 ft / 0 m 230 ft / 70 m
31 66 ft / 20 m 4,231 ft / 1,290 m 307.55° 306.51° Asphalt 1,148 ft / 350 m 0 ft / 0 m
33 148 ft / 45 m 8,189 ft / 2,496 m 328.39° 327.35° Asphalt 558 ft / 170 m 230 ft / 70 m

Approach Navaids

Runway Type Ident Frequency Range Bearing (true) Bearing (mag) Slope Elevation
33 Localiser PL 111.75 MHz 18 nm / 33 km 328.30° 327.26° - 124 ft / 38 m (AMSL)
33 Glidescope PL 111.75 MHz 10 nm / 19 km 328.38° 327.34° 3.00° 124 ft / 38 m (AMSL)
33 DME PL 111.75 MHz 18 nm / 33 km - - - 183 ft / 56 m (AMSL)

Popular Alternatives